Weather History for Grand Canyon, AZ

Change the Weather History Date:

Wednesday, November 14, 2012

  Actual Average Record
Temperature  
Mean Temperature 34 °F -  
Max Temperature 59 °F 50 °F 66 °F (1998)
Min Temperature 9 °F 20 °F -2 °F (1985)
Degree Days  
Heating Degree Days 31    
Moisture  
Dew Point -1 °F    
Average Humidity 29    
Maximum Humidity 53    
Minimum Humidity 10    
Precipitation  
Precipitation 0.00 in - - ()
Sea Level Pressure  
Sea Level Pressure 30.29 in    
Wind  
Wind Speed 4 mph (ENE)    
Max Wind Speed 8 mph    
Max Gust Speed -    
Visibility 10 miles    
Events      
Averages and records for this station are not official NWS values.
T = Trace of Precipitation, MM = Missing Value Source: NWS Daily Summary

Daily Weather History Graph

Daily Weather History Graph

Search for Another Location

Airport:

Trip Planner

Search our weather history database for the weather conditions in past years. The results will help you decide how hot, cold, wet, or windy it might be!

Date:

Astronomy

Nov. 14, 2012 Rise Set
Actual Time 7:04 AM MST 5:21 PM MST
Civil Twilight 6:37 AM MST 5:48 PM MST
Nautical Twilight 6:06 AM MST 6:19 PM MST
Astronomical Twilight 5:36 AM MST 6:49 PM MST
Moon 7:56 AM MST (11/14) 6:15 PM MST (11/14)
Length of Visible Light 11h 11m
Length of Day
10h 16m
New Moon, 1% of the Moon is Illuminated
Nov 14
New Moon
Nov 20
First Quarter
Nov 28
Full
Dec 6
Last Quarter
Dec 13
New

Hourly Weather History & Observations

Time (MST) Temp. Windchill Dew Point Humidity Pressure Visibility Wind Dir Wind Speed Gust Speed Precip Events Conditions
12:54 AM 16.0 °F 6.3 °F -7.1 °F 36% 30.31 in 10.0 mi NE 6.9 mph - N/A   Clear
1:54 AM 17.1 °F 7.6 °F -6.0 °F 36% 30.30 in 10.0 mi ENE 6.9 mph - N/A   Clear
2:54 AM 15.1 °F 6.4 °F -5.1 °F 41% 30.29 in 10.0 mi ENE 5.8 mph - N/A   Clear
3:54 AM 10.0 °F - -8.0 °F 44% 30.30 in 10.0 mi Calm Calm - N/A   Clear
4:54 AM 10.0 °F 3.6 °F -6.0 °F 48% 30.32 in 10.0 mi ENE 3.5 mph - N/A   Clear
5:54 AM 10.9 °F 4.7 °F -5.1 °F 49% 30.36 in 10.0 mi NE 3.5 mph - N/A   Clear
6:54 AM 9.0 °F - -5.1 °F 53% 30.41 in 10.0 mi Calm Calm - N/A   Clear
7:54 AM 16.0 °F - -2.9 °F 43% 30.42 in 10.0 mi Calm Calm - N/A   Clear
8:54 AM 39.0 °F - 5.0 °F 24% 30.35 in 10.0 mi Calm Calm - N/A   Clear
9:54 AM 53.1 °F - 6.1 °F 15% 30.28 in 10.0 mi Variable 4.6 mph - N/A   Clear
10:54 AM 57.0 °F - 3.0 °F 11% 30.27 in 10.0 mi South 8.1 mph - N/A   Clear
11:54 AM 57.0 °F - 3.0 °F 11% 30.25 in 10.0 mi Variable 5.8 mph - N/A   Clear
12:54 PM 57.9 °F - 1.0 °F 10% 30.23 in 10.0 mi Variable 3.5 mph - N/A   Clear
1:54 PM 59.0 °F - 1.9 °F 10% 30.20 in 10.0 mi Variable 5.8 mph - N/A   Clear
2:54 PM 57.9 °F - -0.0 °F 10% 30.20 in 10.0 mi WNW 5.8 mph - N/A   Clear
3:54 PM 55.9 °F - 1.0 °F 11% 30.22 in 10.0 mi SSW 5.8 mph - N/A   Clear
4:54 PM 48.0 °F - 1.9 °F 15% 30.26 in 10.0 mi Calm Calm - N/A   Clear
5:54 PM 35.1 °F - 1.9 °F 25% 30.32 in 10.0 mi Calm Calm - N/A   Clear
6:54 PM 30.0 °F 26.5 °F 1.0 °F 29% 30.37 in 10.0 mi ENE 3.5 mph - N/A   Clear
7:54 PM 27.0 °F 21.6 °F -0.9 °F 30% 30.35 in 10.0 mi ENE 4.6 mph - N/A   Clear
8:54 PM 26.1 °F - -0.0 °F 32% 30.26 in 10.0 mi Calm Calm - N/A   Clear
9:54 PM 23.0 °F - -0.0 °F 37% 30.22 in 10.0 mi Calm Calm - N/A   Clear
10:54 PM 21.0 °F - -0.9 °F 38% 30.22 in 10.0 mi Calm Calm - N/A   Clear
11:54 PM 18.0 °F - -2.9 °F 40% 30.22 in 10.0 mi Calm Calm - N/A   Clear